"TOA5","AWS1","CR1000","7964","CR1000.Std.14","CPU:AWS1_114.CR1","64363","TBL110"
"TIMESTAMP","RECORD","Wind_spd_WVc(1)","Wind_spd_WVc(2)","Air_Temp_Avg","Humidity_Avg","SW_upper_Wm2_Avg","Rain_Tot","Press_Avg","Issui_Tot","Depth_cm","SR50A_Raw","Quality","Ground_Temp_Avg(1)","Ground_Temp_Avg(2)","SW_lower_Wm2_Avg","Albedo_Avg","SWC_per(1)","SWC_per(2)","Period(1)","Period(2)"
"TS","RN","","","","","","","","","","","","","","","","","","",""
"","","WVc","WVc","Avg","Avg","Avg","Tot","Avg","Tot","Smp","Smp","Smp","Avg","Avg","Avg","Avg","Smp","Smp","Smp","Smp"
"2017-05-27 00:00:00",289789,0.028,38.59,9.22,100,0,0,859.1796,0,-4.489,3.172,205,13.59,12.84,0.4547497,0,52.49,63.08,33.91,36.38
"2017-05-27 00:10:00",289790,0.143,39.69,9.15,100,0,0,859.0848,0,-4.492,3.173,202,13.58,12.83,0.4547472,0,52.44,62.96,33.89,36.35
"2017-05-27 00:20:00",289791,0.087,44.38,9.01,100,0,0,859.0659,0,-4.372,3.172,205,13.62,12.85,0.4547527,0,52.38,62.84,33.88,36.32
"2017-05-27 00:30:00",289792,0,0,8.99,100,0,0,859.0659,0,-4.473,3.173,205,13.56,12.85,0.4547674,0,52.38,62.54,33.88,36.25
"2017-05-27 00:40:00",289793,0.055,117.4,8.85,100,0,0,859.0258,0,-4.172,3.171,209,13.51,12.82,0.4547654,0,52.38,62.42,33.88,36.23
"2017-05-27 00:50:00",289794,0,0,8.9,100,0,0,859.0406,0,-3.993,3.169,221,13.51,12.81,0.750366,0,52.38,62.36,33.88,36.21
"2017-05-27 01:00:00",289795,0.056,12.94,8.7,100,0,0,858.9859,0,-3.944,3.169,211,13.54,12.81,0.9095324,0,52.32,62.3,33.87,36.2
"2017-05-27 01:10:00",289796,0,0,8.75,100,0,0,858.8174,0,-4.093,3.17,205,13.55,12.81,0.8564718,0,52.32,62.24,33.87,36.19
"2017-05-27 01:20:00",289797,0,0,8.72,100,0,0,858.8574,0,-3.852,3.168,219,13.5,12.82,0.8451397,0,52.27,62.24,33.85,36.19
"2017-05-27 01:30:00",289798,0,0,8.79,100,0,0,858.9564,0,-3.852,3.168,208,13.49,12.82,0.7163031,0,52.27,62.24,33.85,36.19
"2017-05-27 01:40:00",289799,0,0,8.75,100,0,0,859.0596,0,-3.914,3.169,202,13.46,12.82,0.5760974,0,52.27,62.24,33.85,36.19
"2017-05-27 01:50:00",289800,0,0,8.7,100,0,0,859.0638,0,-4.022,3.17,206,13.51,12.83,0.8793551,0,52.21,62.18,33.84,36.17
"2017-05-27 02:00:00",289801,0,0,8.7,100,0,0,859.0659,0,-3.921,3.169,214,13.53,12.79,0.8831623,0,52.21,62.12,33.84,36.16
"2017-05-27 02:10:00",289802,0.153,136.8,8.59,100,0,0,858.9311,0,-4.889,3.18,197,13.39,12.78,0.5723463,0,52.27,62.12,33.85,36.16
"2017-05-27 02:20:00",289803,0.393,136.8,8.56,100,0,0,858.8153,0,-2.706,3.158,214,13.38,12.78,0.553395,0,52.21,62.06,33.84,36.15
"2017-05-27 02:30:00",289804,0.268,144.4,8.45,100,0,0,858.8132,0,-4.87,3.18,194,13.41,12.78,0.8983443,0,52.21,62,33.84,36.13
"2017-05-27 02:40:00",289805,0.177,170.5,8.35,100,0,0,858.8132,0,-4.947,3.181,194,13.45,12.79,1.201599,0,52.16,62,33.83,36.13
"2017-05-27 02:50:00",289806,0.52,78.57,8.39,100,0,0,858.8153,0,-3.99,3.172,209,13.42,12.81,1.197837,0,52.16,61.94,33.83,36.12
"2017-05-27 03:00:00",289807,0.429,64.58,8.15,100,0,0,858.969,0,-4.022,3.174,198,13.32,12.85,1.209236,0,52.16,61.94,33.83,36.12
"2017-05-27 03:10:00",289808,0.257,121.8,8.25,100,0,0,859.0533,0,-4.453,3.177,201,13.37,12.88,1.277488,0,52.16,61.94,33.83,36.12
"2017-05-27 03:20:00",289809,0.264,96.9,8.24,100,0,0,859.0596,0,-4.275,3.175,203,13.4,12.89,0.913585,0,52.1,61.34,33.81,35.98
"2017-05-27 03:30:00",289810,0.075,106.7,8.23,100,0,0,859.0616,0,-4.808,3.18,196,13.29,12.89,0.9173803,0,52.1,61.22,33.81,35.96
"2017-05-27 03:40:00",289811,0.202,135.5,8.27,100,0,0,859.0554,0,-4.859,3.181,196,13.24,12.89,0.8150294,0,52.1,61.16,33.81,35.94
"2017-05-27 03:50:00",289812,0.415,136.1,8.16,100,0,0,859.0575,0,-5.142,3.185,186,13.26,12.89,0.4511095,0,52.05,61.16,33.8,35.94
"2017-05-27 04:00:00",289813,0.443,139.3,8.05,100,0,0,858.9332,0,-5.04,3.184,190,13.28,12.89,0.4549004,0,52.05,61.04,33.8,35.92
"2017-05-27 04:10:00",289814,0.57,148.8,7.987,100,0,0,859.0449,0,-4.992,3.185,194,13.22,12.89,0.4018287,0,52.05,61.04,33.8,35.92
"2017-05-27 04:20:00",289815,0.422,135,7.715,100,0,0,859.0659,0,-4.816,3.184,195,13.17,12.8,0.5989522,0,52.05,60.98,33.8,35.9
"2017-05-27 04:30:00",289816,0.149,103.7,7.552,100,0,0,859.0701,0,-4.464,3.182,195,13.21,12.73,1.027317,0,52.05,60.98,33.8,35.9
"2017-05-27 04:40:00",289817,0.172,81.9,7.295,100,0,0,859.1595,0,-4.313,3.181,197,13.23,12.72,1.512544,0,51.99,60.98,33.79,35.9
"2017-05-27 04:50:00",289818,0,0,7.209,100,1.843933,0,859.2966,0,-4.263,3.181,190,13.08,12.74,2.138031,1.609,51.99,60.92,33.79,35.89
"2017-05-27 05:00:00",289819,0,0,7.259,100,9.290434,0,859.3342,0,-4.211,3.18,196,13.14,12.78,2.888618,0.33,51.99,60.92,33.79,35.89
"2017-05-27 05:10:00",289820,0,0,7.044,100,24.36429,0,859.5215,0,-3.835,3.178,202,13.15,12.8,4.780244,0.202,51.99,60.86,33.79,35.88
"2017-05-27 05:20:00",289821,0,0,7.163,100,27.08498,0,859.8065,0,-3.857,3.177,198,13.07,12.8,4.571748,0.171,51.94,60.8,33.77,35.86
"2017-05-27 05:30:00",289822,0,0,7.108,100,32.12139,0,859.694,0,-3.808,3.177,198,12.99,12.8,4.768872,0.148,51.94,60.8,33.77,35.86
"2017-05-27 05:40:00",289823,0.073,41.11,7.2,100,59.10415,0,859.7673,0,-3.831,3.176,209,13.05,12.8,9.268595,0.156,51.94,60.74,33.77,35.85
"2017-05-27 05:50:00",289824,0.008,30.31,7.461,100,59.11594,0,859.8648,0,-3.752,3.174,200,13.06,12.8,8.684806,0.144,51.94,60.8,33.77,35.86
"2017-05-27 06:00:00",289825,0.018,55.4,7.555,100,78.21578,0,859.8497,0,-4.106,3.177,203,12.99,12.8,11.71368,0.149,51.94,60.68,33.77,35.83
"2017-05-27 06:10:00",289826,0.132,52.13,7.69,100,127.7071,0,859.8333,0,-3.496,3.17,206,12.92,12.79,21.60398,0.165,51.88,60.74,33.76,35.85
"2017-05-27 06:20:00",289827,0.148,71.91,7.743,100,158.2087,0,859.9507,0,-3.37,3.169,207,12.89,12.75,24.47743,0.154,51.94,60.68,33.77,35.83
"2017-05-27 06:30:00",289828,0.154,18.62,7.714,100,145.8909,0,860.1112,0,-4.869,3.186,202,12.89,12.75,22.79809,0.149,51.88,60.68,33.76,35.83
"2017-05-27 06:40:00",289829,0.371,352,7.225,100,256.0609,0,860.2351,0,-4.558,3.181,200,12.89,12.74,42.19548,0.164,51.88,60.68,33.76,35.83
"2017-05-27 06:50:00",289830,0.396,345.4,7.58,100,193.8598,0,860.2728,0,-3.801,3.175,197,12.9,12.73,35.05677,0.171,51.88,60.62,33.76,35.82
"2017-05-27 07:00:00",289831,0.363,335.3,7.172,100,90.29922,0,860.3045,0,-3.199,3.172,209,12.94,12.77,19.71943,0.223,51.88,60.62,33.76,35.82
"2017-05-27 07:10:00",289832,0.486,331.5,6.932,100,112.1283,0,860.2939,0,-3.43,3.175,199,12.91,12.79,21.92206,0.199,51.88,60.62,33.76,35.82
"2017-05-27 07:20:00",289833,0.64,0.484,6.851,100,217.638,0,860.3298,0,-5.229,3.193,185,12.87,12.8,38.70423,0.177,51.88,60.56,33.76,35.81
"2017-05-27 07:30:00",289834,0.492,350,7.05,100,233.9979,0,860.3298,0,-4.921,3.188,190,12.87,12.77,44.06455,0.189,51.82,60.56,33.75,35.81
"2017-05-27 07:40:00",289835,0.589,15.63,7.255,96.7,364.1757,0,860.3298,0,-6.183,3.199,192,12.85,12.77,60.86831,0.168,51.82,60.5,33.75,35.79
"2017-05-27 07:50:00",289836,0.5,355,7.342,97.5,396.5436,0,860.3298,0,-6.082,3.198,193,12.84,12.76,57.14948,0.145,51.82,60.5,33.75,35.79
"2017-05-27 08:00:00",289837,0.695,13.95,7.611,100,381.9394,0,860.3845,0,-4.836,3.184,225,12.85,12.76,56.53179,0.148,51.82,60.5,33.75,35.79
"2017-05-27 08:10:00",289838,0.52,356.3,7.845,99.2,387.477,0,860.5804,0,-5.625,3.19,196,12.85,12.73,59.86312,0.154,51.82,60.5,33.75,35.79
"2017-05-27 08:20:00",289839,0.252,299.8,7.932,98.4,286.6988,0,860.5825,0,-4.366,3.179,233,12.78,12.69,43.71783,0.151,51.82,60.44,33.75,35.78
"2017-05-27 08:30:00",289840,0.604,357.4,8.25,91.9,739.4285,0,860.5825,0,-4.4,3.175,222,12.77,12.66,121.1077,0.163,51.82,60.44,33.75,35.78
"2017-05-27 08:40:00",289841,0.39,339.2,8.49,89.4,365.0582,0,860.5867,0,-5.463,3.185,181,12.78,12.66,57.90129,0.158,51.82,60.44,33.75,35.78
"2017-05-27 08:50:00",289842,0.221,344,8.4,91.3,249.6488,0,860.6141,0,-5.566,3.187,181,12.81,12.64,39.32804,0.157,51.77,60.38,33.73,35.77
"2017-05-27 09:00:00",289843,0.625,5.862,8.99,81.7,698.2829,0,860.5825,0,-5.81,3.185,187,12.8,12.63,115.0241,0.162,51.82,60.33,33.75,35.75
"2017-05-27 09:10:00",289844,0.834,22.5,9.14,77.57,431.1132,0,860.5825,0,-4.722,3.176,212,12.8,12.61,67.8859,0.156,51.82,60.33,33.75,35.75
"2017-05-27 09:20:00",289845,0.264,56.95,9.47,81.1,413.5919,0,860.6942,0,-4.049,3.165,193,12.8,12.58,67.88969,0.164,51.77,60.15,33.73,35.71
"2017-05-27 09:30:00",289846,0.272,319.3,9.72,78.86,296.0882,0,860.8205,0,-4.662,3.172,193,12.79,12.59,47.75205,0.161,51.77,60.15,33.73,35.71
"2017-05-27 09:40:00",289847,0.419,332.6,9.71,76.3,618.4778,0,860.8303,0,-3.709,3.159,193,12.77,12.57,100.6124,0.162,51.77,60.09,33.73,35.7
"2017-05-27 09:50:00",289848,0.603,18.74,10.87,72.15,1024.496,0,860.8348,0,-4.855,3.163,195,12.82,12.59,170.7,0.166,51.77,60.09,33.73,35.7
"2017-05-27 10:00:00",289849,0.601,354.5,11.87,66.55,989.4089,0,860.8903,0,-4.268,3.158,192,12.81,12.58,164.6403,0.163,51.71,60.09,33.72,35.7
"2017-05-27 10:10:00",289850,0.497,341.1,10.53,68.82,226.256,0,861.0178,0,-4.47,3.166,191,12.8,12.54,35.27712,0.156,51.71,60.03,33.72,35.69
"2017-05-27 10:20:00",289851,0.341,20.57,10.77,67,723.08,0,861.0436,0,-3.443,3.146,203,12.78,12.49,125.7393,0.171,51.71,60.03,33.72,35.69
"2017-05-27 10:30:00",289852,0.651,17.88,12.29,60.02,867.9402,0,860.9975,0,-4.819,3.16,195,12.83,12.44,145.403,0.161,51.71,60.03,33.72,35.69
"2017-05-27 10:40:00",289853,0.416,269.9,11.25,66.67,181.6216,0,860.9923,0,-4.585,3.164,179,12.84,12.44,26.10514,0.144,51.71,59.97,33.72,35.67
"2017-05-27 10:50:00",289854,0.728,6.535,10.62,64.25,359.3345,0,861.0994,0,-4.071,3.158,195,12.84,12.41,60.89631,0.165,51.71,59.97,33.72,35.67
"2017-05-27 11:00:00",289855,0.452,153.4,12.38,61.91,1219.143,0,861.051,0,-4.336,3.15,186,12.89,12.41,209.4649,0.172,51.66,59.97,33.7,35.67
"2017-05-27 11:10:00",289856,0.735,38.64,12.87,56.09,1116.891,0,861.0004,0,-4.635,3.151,187,12.93,12.44,193.2003,0.171,51.71,59.97,33.72,35.67
"2017-05-27 11:20:00",289857,0.536,122.5,13.73,49.99,1013.518,0,860.9836,0,-3.452,3.139,192,12.95,12.41,173.8021,0.166,51.66,59.97,33.7,35.67
"2017-05-27 11:30:00",289858,0.841,260.3,13.12,51.86,528.4609,0,860.7604,0,-3.693,3.149,185,13.01,12.41,84.30469,0.154,51.66,59.97,33.7,35.67
"2017-05-27 11:40:00",289859,0.382,294.2,12.14,56.63,355.39,0,860.7457,0,-3.99,3.15,242,13.08,12.41,56.54741,0.159,51.6,59.91,33.69,35.66
"2017-05-27 11:50:00",289860,0.366,337.4,12.61,55.76,924.3952,0,860.7478,0,-3.952,3.142,196,13.12,12.4,160.3492,0.17,51.6,59.97,33.69,35.67
"2017-05-27 12:00:00",289861,0.611,107,14.42,53.53,1115.475,0,860.7352,0,-3.806,3.133,225,13.17,12.38,193.7161,0.172,51.6,59.97,33.69,35.67
"2017-05-27 12:10:00",289862,0.609,7.956,14.06,52.43,776.1516,0,860.712,0,-3.789,3.139,181,13.27,12.37,128.1679,0.154,51.6,59.97,33.69,35.67
"2017-05-27 12:20:00",289863,0.702,220.4,14.58,51.25,1202.328,0,860.6172,0,-3.98,3.138,188,13.29,12.36,211.0814,0.176,51.6,59.91,33.69,35.66
"2017-05-27 12:30:00",289864,0.678,279.2,14.58,51.66,1094.609,0,860.6467,0,-3.863,3.139,188,13.35,12.39,188.2989,0.167,51.66,59.91,33.7,35.66
"2017-05-27 12:40:00",289865,0.545,283.6,13.39,54.14,327.2459,0,860.7457,0,-2.563,3.132,219,13.44,12.37,45.89088,0.138,51.55,59.91,33.68,35.66
"2017-05-27 12:50:00",289866,0.846,272.3,13.09,54.4,418.8729,0,860.7457,0,-3.668,3.144,193,13.5,12.37,65.35493,0.153,51.55,59.91,33.68,35.66
"2017-05-27 13:00:00",289867,0.808,319.8,13.31,53.64,882.8303,0,860.7499,0,-3.072,3.132,200,13.6,12.38,152.6097,0.169,51.55,59.91,33.68,35.66
"2017-05-27 13:10:00",289868,0.681,306.2,13.62,53.82,897.8193,0,860.7709,0,-3.737,3.138,186,13.64,12.36,157.8148,0.171,51.55,59.91,33.68,35.66
"2017-05-27 13:20:00",289869,0.45,159.5,15.03,51.44,1191.559,0,860.7457,0,-3.014,3.122,205,13.73,12.37,210.3844,0.177,51.55,59.85,33.68,35.64
"2017-05-27 13:30:00",289870,0.527,336.7,14.84,50.2,417.262,0,860.7415,0,-3.887,3.139,181,13.85,12.38,61.1045,0.133,51.55,59.85,33.68,35.64
"2017-05-27 13:40:00",289871,0.499,281.7,14.69,51.05,1153.33,0,860.5267,0,-3.184,3.126,213,13.89,12.38,209.0092,0.181,51.49,59.85,33.66,35.64
"2017-05-27 13:50:00",289872,0.368,307.9,15.84,49.5,974.9838,0,860.5604,0,-5.065,3.141,181,13.93,12.32,168.7515,0.168,51.44,59.85,33.65,35.64
"2017-05-27 14:00:00",289873,0.398,272.3,15.91,49.56,968.1082,0,860.5246,0,-2.795,3.118,218,13.99,12.32,167.168,0.171,51.49,59.85,33.66,35.64
"2017-05-27 14:10:00",289874,0.308,271.6,15.39,48.85,648.673,0,860.5499,0,-3.492,3.129,180,14.07,12.32,104.2186,0.146,51.49,59.79,33.66,35.63
"2017-05-27 14:20:00",289875,0.48,286.4,15.13,48.61,983.5921,0,860.5562,0,-2.53,3.118,209,14.16,12.32,166.0429,0.169,51.44,59.79,33.65,35.63
"2017-05-27 14:30:00",289876,0.673,351.5,15.51,49.03,977.8087,0,860.493,0,-3.474,3.126,203,14.22,12.32,157.114,0.161,51.44,59.79,33.65,35.63
"2017-05-27 14:40:00",289877,0.5,355.7,15.51,48.45,615.0726,0,860.5541,0,-4.325,3.139,192,14.29,12.32,88.47084,0.131,51.44,59.79,33.65,35.63
"2017-05-27 14:50:00",289878,0.518,262,15.18,52.14,926.1824,0,860.5183,0,-1.437,3.109,243,14.38,12.32,121.1559,0.13,51.38,59.79,33.64,35.63
"2017-05-27 15:00:00",289879,0.414,279.7,15.18,51.97,774.2225,0,860.5814,0,-3.799,3.132,195,14.46,12.38,75.93552,0.097,51.38,59.79,33.64,35.63
"2017-05-27 15:10:00",289880,0.525,263.8,14.78,53.32,641.9152,0,860.6657,0,-2.489,3.123,197,14.55,12.38,43.04969,0.067,51.33,59.79,33.62,35.63
"2017-05-27 15:20:00",289881,0.35,233.2,14.18,58.38,198.9383,0,860.7225,0,-2.867,3.13,208,14.6,12.36,19.3466,0.092,51.38,59.73,33.64,35.62
"2017-05-27 15:30:00",289882,0.392,263.9,13.92,57.66,162.0376,0,860.7436,0,-3.55,3.135,200,14.66,12.41,29.20364,0.183,51.27,59.73,33.61,35.62
"2017-05-27 15:40:00",289883,0.405,216,14.08,59.65,150.3254,0,860.7457,0,-3.229,3.134,201,14.72,12.39,32.55624,0.218,51.33,59.73,33.62,35.62
"2017-05-27 15:50:00",289884,0.902,253.9,13.63,60.2,123.6223,0,860.7878,0,-3.405,3.139,192,14.81,12.43,24.71112,0.205,51.27,59.73,33.61,35.62
"2017-05-27 16:00:00",289885,0.638,254.2,13.31,60.47,80.07759,0,860.8636,0,-3.622,3.141,186,14.89,12.44,17.76439,0.223,51.27,59.73,33.61,35.62
"2017-05-27 16:10:00",289886,0.854,252.7,13.2,60.27,96.24871,0,860.9457,0,-0.763,3.113,296,14.99,12.47,19.31889,0.205,51.21,59.67,33.6,35.6
"2017-05-27 16:20:00",289887,0.554,255.2,13.14,61.16,107.4644,0,861.0104,0,-2.855,3.134,228,15.02,12.51,17.02419,0.179,51.27,59.67,33.61,35.6
"2017-05-27 16:30:00",289888,0.527,238.5,13.14,62.99,86.58598,0,861.0425,0,-3.841,3.145,185,15.09,12.55,15.60423,0.187,51.27,59.67,33.61,35.6
"2017-05-27 16:40:00",289889,0.654,245.6,12.87,64.77,85.9997,0,861.0613,0,-4.283,3.15,182,15.13,12.58,14.70295,0.171,51.21,59.67,33.6,35.6
"2017-05-27 16:50:00",289890,0.607,257,12.58,64.57,73.44439,0,861.0978,0,-3.296,3.142,257,15.21,12.6,12.81609,0.174,51.21,59.67,33.6,35.6
"2017-05-27 17:00:00",289891,0.421,228.9,12.5,66.62,84.82702,0,861.191,0,-3.886,3.148,230,15.25,12.65,15.32106,0.181,51.21,59.67,33.6,35.6
"2017-05-27 17:10:00",289892,0.655,244.7,12.44,65.53,81.23103,0,861.338,0,0.709,3.104,364,15.28,12.67,13.77497,0.168,51.16,59.67,33.58,35.6
"2017-05-27 17:20:00",289893,0.568,234.1,12.19,67.23,69.88437,0,861.3406,0,-4.688,3.158,194,15.28,12.67,11.31936,0.162,51.16,59.67,33.58,35.6
"2017-05-27 17:30:00",289894,0.723,233.4,11.94,68.38,44.23534,0,861.387,0,-3.033,3.143,197,15.32,12.67,6.264112,0.141,51.16,59.61,33.58,35.59
"2017-05-27 17:40:00",289895,0.289,203.9,11.8,71.28,73.55132,0,861.5891,0,-2.984,3.143,201,15.32,12.69,12.67601,0.172,51.16,59.61,33.58,35.59
"2017-05-27 17:50:00",289896,0.512,243.2,11.69,69.75,92.67608,0,861.6081,0,-1.865,3.133,236,15.35,12.7,16.48071,0.177,51.16,59.61,33.58,35.59
"2017-05-27 18:00:00",289897,0.508,256.6,11.46,69.48,69.96297,0,861.7851,0,-2.764,3.143,201,15.35,12.69,11.84989,0.169,51.1,59.67,33.57,35.6
"2017-05-27 18:10:00",289898,0.42,240.1,11.27,71.33,68.09216,0,861.8483,0,-3.891,3.155,195,15.35,12.78,11.98632,0.176,51.1,59.67,33.57,35.6
"2017-05-27 18:20:00",289899,0.332,241.6,11.14,72.36,55.2873,0,861.9725,0,-4.482,3.162,189,15.33,12.8,9.65575,0.175,51.1,59.67,33.57,35.6
"2017-05-27 18:30:00",289900,0.115,276,10.88,73.93,35.64374,0,862.0967,0,-3.437,3.152,195,15.32,12.8,6.161794,0.173,51.1,59.67,33.57,35.6
"2017-05-27 18:40:00",289901,0.362,55.93,10.76,74.7,30.38109,0,862.1389,0,-2.678,3.146,202,15.28,12.8,5.578204,0.184,51.1,59.67,33.57,35.6
"2017-05-27 18:50:00",289902,0.118,21.6,10.48,75.49,12.90705,0,862.2631,0,-2.307,3.145,218,15.29,12.8,2.235829,0.168,51.1,59.61,33.57,35.59
"2017-05-27 19:00:00",289903,0.092,80.1,10.13,78.59,2.102702,0,862.3516,0,-2.616,3.149,215,15.27,12.79,0.2160038,0.044,51.1,59.61,33.57,35.59
"2017-05-27 19:10:00",289904,0.267,239.6,9.78,79.86,0,0,862.3516,0,-2.27,3.148,227,15.2,12.8,0,0,51.1,59.61,33.57,35.59
"2017-05-27 19:20:00",289905,0.246,249.7,9.45,80.7,0,0,862.3601,0,-2.655,3.153,217,15.23,12.85,0,0,51.05,59.61,33.56,35.59
"2017-05-27 19:30:00",289906,0.236,234.5,9.15,82.5,0,0,862.3516,0,-2.536,3.154,228,15.24,12.88,0,0,51.05,59.61,33.56,35.59
"2017-05-27 19:40:00",289907,0.048,249.5,8.89,83.8,0,0,862.398,0,-2.668,3.157,217,15.21,12.89,0,0,51.1,59.61,33.57,35.59
"2017-05-27 19:50:00",289908,0.093,13.43,8.56,87.2,0,0,862.5812,0,-1.863,3.15,247,15.15,12.89,0.01136898,0,51.1,59.56,33.57,35.58
"2017-05-27 20:00:00",289909,0.091,316.2,8.65,87.4,0,0,862.6044,0,-2.374,3.153,237,15.16,12.9,0.4585601,0,51.05,59.56,33.56,35.58
"2017-05-27 20:10:00",289910,0.057,91.9,8.8,87.1,0,0,862.6044,0,-3.178,3.161,227,15.1,12.93,0.4548127,0,51.05,59.56,33.56,35.58
"2017-05-27 20:20:00",289911,0,0,8.78,88.2,0,0,862.7202,0,-2.861,3.159,228,15.13,12.98,0.4548476,0,51.05,59.56,33.56,35.58
"2017-05-27 20:30:00",289912,0.083,2.045,8.66,90.8,0,0,862.8572,0,-3.731,3.168,196,15.08,13.05,0.4359152,0,51.05,59.56,33.56,35.58
"2017-05-27 20:40:00",289913,0.096,290.6,8.41,95.2,0,0,862.8572,0,-3.818,3.171,193,15.06,13.09,0.04169727,0,51.05,59.56,33.56,35.58
"2017-05-27 20:50:00",289914,0.244,347.3,8.18,99.9,0,0,862.975,0,-3.921,3.173,192,15.04,13.1,0.07202426,0,51.05,59.56,33.56,35.58
"2017-05-27 21:00:00",289915,0.268,314.1,8.23,97.2,0,0,863.1098,0,-3.992,3.171,190,14.98,13.07,0.4018235,0,51.1,59.56,33.57,35.58
"2017-05-27 21:10:00",289916,0.275,331.3,8.47,90.3,0,0,863.1098,0,-4.273,3.174,181,15.02,13.07,0.4548981,0,51.1,59.5,33.57,35.56
"2017-05-27 21:20:00",289917,0.247,219.7,8.3,94.7,0,0,863.1477,0,-4.432,3.178,185,14.92,13.07,0.1478423,0,51.05,59.56,33.56,35.58
"2017-05-27 21:30:00",289918,0.085,343.8,8.15,98.2,0,0,863.3094,0,-4.734,3.18,180,14.92,13.07,0.3866652,0,51.05,59.5,33.56,35.56
"2017-05-27 21:40:00",289919,0.413,281.6,8.24,94.3,0,0,863.2491,0,-4.503,3.177,189,14.85,13.08,0.4586912,0,51.05,59.5,33.56,35.56
"2017-05-27 21:50:00",289920,0.295,280.2,8.27,93.2,0,0,863.2311,0,-4.531,3.178,177,14.81,13.15,0.4662729,0,51.05,59.5,33.56,35.56
"2017-05-27 22:00:00",289921,0.144,193.1,8.19,96.8,0,0,863.3209,0,-4.635,3.18,189,14.83,13.2,0.1364701,0,51.05,59.5,33.56,35.56
"2017-05-27 22:10:00",289922,0.154,262,8.08,99.3,0,0,863.3622,0,-4.81,3.181,194,14.72,13.23,0.2881036,0,51.05,59.5,33.56,35.56
"2017-05-27 22:20:00",289923,0.139,323.9,8.06,99.1,0,0,863.3719,0,-4.661,3.181,193,14.75,13.24,0.3032669,0,51.05,59.5,33.56,35.56
"2017-05-27 22:30:00",289924,0.248,300.1,7.879,99,0,0,863.3587,0,-4.458,3.179,186,14.64,13.23,0.1023526,0,51.05,59.5,33.56,35.56
"2017-05-27 22:40:00",289925,0.131,185.5,7.806,99.3,0,0,863.3565,0,-4.563,3.182,190,14.66,13.23,0.1326793,0,51.05,59.5,33.56,35.56
"2017-05-27 22:50:00",289926,0.074,179.5,7.561,100,0,0,863.1912,0,-4.36,3.18,186,14.56,13.23,0.05686254,0,51.05,59.44,33.56,35.55
"2017-05-27 23:00:00",289927,0.298,223.4,7.582,100,0,0,863.1485,0,-4.512,3.181,186,14.59,13.24,0.4132012,0,51.05,59.44,33.56,35.55
"2017-05-27 23:10:00",289928,0.328,261,7.732,99.6,0,0,863.1676,0,-5.271,3.188,186,14.54,13.22,0.625488,0,51.05,59.44,33.56,35.55
"2017-05-27 23:20:00",289929,0.147,314,7.644,99.4,0,0,863.1757,0,-5.194,3.187,180,14.48,13.2,0.4473187,0,51.05,59.44,33.56,35.55
"2017-05-27 23:30:00",289930,0.071,80.5,7.47,100,0,0,863.1885,0,-4.869,3.186,185,14.49,13.18,0.2160777,0,51.05,59.44,33.56,35.55
"2017-05-27 23:40:00",289931,0.095,209.9,7.4,100,0,0,863.1839,0,-4.615,3.183,194,14.38,13.18,0.3032669,0,51.05,59.44,33.56,35.55
"2017-05-27 23:50:00",289932,0.287,196.5,7.488,100,0,0,863.1857,0,-4.713,3.183,194,14.43,13.16,0.4549004,0,51.05,59.44,33.56,35.55
